Regional Weather Roundup
Issued by NWS

Home | Current Version | Previous Version | Text Only | Print | Product List | Glossary On
Versions: 1 2 3 4 5 6 7 8 9 10 11 12 13 14 15 16 17 18 19 20 21 22 23 24 25 26 27 28 29 30 31 32 33 34 35 36 37 38 39 40 41 42 43 44 45 46 47 48 49 50
000
ASUS44 KBMX 300610
RWRAL

ALABAMA REGIONAL WEATHER ROUNDUP
NATIONAL WEATHER SERVICE BIRMINGHAM AL
100 AM CDT WED JUL 30 2014

NOTE: "FAIR" INDICATES FEW OR NO CLOUDS BELOW 12,000 FEET
WITH NO SIGNIFICANT WEATHER AND/OR OBSTRUCTIONS TO VISIBILITY.

THE REMARK "TC" DENOTES TEMPERATURE IN DEGREES CELSIUS.

ALZ001>011-014-016>018-020-300700-
NORTH ALABAMA

CITY           SKY/WX    TMP DP  RH WIND       PRES   REMARKS
MUSCLE SHOALS  CLEAR     61  55  81 CALM      30.11S
6HR MIN TEMP:  60; 6HR MAX TEMP:  76;

HUNTSVILLE     CLEAR     62  56  80 CALM      30.09S
6HR MIN TEMP:  62; 6HR MAX TEMP:  76;

DECATUR        CLEAR     58  56  93 MISG      30.10R
6HR MIN TEMP:  58; 6HR MAX TEMP:  74;

HALEYVILLE     FAIR      57  56  97 CALM      30.13S
6HR MIN TEMP:  57; 6HR MAX TEMP:  72;

GADSDEN        CLEAR     59  54  82 CALM      30.07S
6HR MIN TEMP:  57; 6HR MAX TEMP:  75;

$$

ALZ012-013-022-023-030>036-040>044-300700-
WEST CENTRAL ALABAMA

CITY           SKY/WX    TMP DP  RH WIND       PRES   REMARKS
TUSCALOOSA     CLEAR     63  56  78 CALM      30.08S
6HR MIN TEMP:  61; 6HR MAX TEMP:  79;

$$

ALZ015-024>027-033>036-040>044-300700-
CENTRAL ALABAMA

CITY           SKY/WX    TMP DP  RH WIND       PRES   REMARKS
BIRMINGHAM     CLEAR     61  54  77 CALM      30.09F
6HR MIN TEMP:  61; 6HR MAX TEMP:  77;

MONTGOMERY     CLEAR     67  56  67 NW3       30.05R
6HR MIN TEMP:  67; 6HR MAX TEMP:  83;

SHELBY CO ARPT CLEAR     64  56  75 CALM      30.07S
6HR MIN TEMP:  64; 6HR MAX TEMP:  79;

MAXWELL AFB    CLEAR     67  56  67 N6        30.04S
6HR MIN TEMP:  67; 6HR MAX TEMP:  81;

GREENVILLE     FAIR      67  58  72 N5        30.04S
6HR MIN TEMP:  67; 6HR MAX TEMP:  82;

$$

ALZ019-021-028-029-037-038-045>048-300700-
EAST CENTRAL ALABAMA

CITY           SKY/WX    TMP DP  RH WIND       PRES   REMARKS
ANNISTON       CLEAR     63  55  75 CALM      30.07S
6HR MIN TEMP:  63; 6HR MAX TEMP:  78;

ALEXANDER CITY CLEAR     64  56  75 CALM      30.06S
6HR MIN TEMP:  63; 6HR MAX TEMP:  81;

AUBURN         CLEAR     64  52  63 N7        30.07S
6HR MIN TEMP:  64; 6HR MAX TEMP:  75;

$$

ALZ051>064-300700-
SOUTHWEST ALABAMA

CITY           SKY/WX    TMP DP  RH WIND       PRES   REMARKS
MOBILE         PTCLDY    74  64  71 N8        30.05S
6HR MIN TEMP:  74; 6HR MAX TEMP:  84;

BROOKLEY FIELD CLOUDY    77  63  61 N10       30.05R
6HR MIN TEMP:  75; 6HR MAX TEMP:  87;

EVERGREEN      CLEAR     70  60  70 N5        30.04F
6HR MIN TEMP:  69; 6HR MAX TEMP:  85;

$$

ALZ049-050-065>069-300700-
SOUTHEAST ALABAMA

CITY           SKY/WX    TMP DP  RH WIND       PRES   REMARKS
DOTHAN         CLEAR     70  65  84 NW6       30.04F
6HR MIN TEMP:  69; 6HR MAX TEMP:  80;

OZARK          PTCLDY    71  63  75 NW6       30.00F
6HR MIN TEMP:  71; 6HR MAX TEMP:  82;

TROY           CLEAR     64  61  90 CALM      30.04S
6HR MIN TEMP:  64; 6HR MAX TEMP:  83;

EUFAULA        FAIR      67  61  81 CALM      30.00F
6HR MIN TEMP:  67; 6HR MAX TEMP:  82;

$$


USA.gov is the U.S. government's official web portal to all federal, state and local government web resources and services.